This demonstration page uses our WeatherBlox Daily Observations layout. Learn more.

Left ArrowRight Arrow

41.86663, -103.66717

Hourly Observations for January 25, 2020

Temp ( °F °C ) Dew Point ( °F °C ) Humidity (%) Winds ( mph kmh ) Pressure ( in mb ) Visibility ( mi km ) Precip ( " mm )
12:53 am 00:53 Clear 21 -6.1 18 -7.8 88 88 N 3 6 29.97 1015 10 16.0934 0 0
1:53 am 01:53 Clear 23 -5 20 -6.7 88 88 N 5 7 29.95 1014 10 16.0934 0 0
2:53 am 02:53 Clear 22 -5.6 19 -7.2 89 89 NW 6 9 29.95 1014 10 16.0934 0 0
3:53 am 03:53 Clear 21 -6.1 19 -7.2 92 92 WNW 8 13 29.96 1015 10 16.0934 0 0
4:53 am 04:53 Clear 22 -5.6 20 -6.7 92 92 NW 8 13 29.99 1016 10 16.0934 0 0
5:53 am 05:53 Clear 27 -2.8 24 -4.4 89 89 NW 6 9 30.01 1016 10 16.0934 0 0
6:53 am 06:53 Mostly Clear 28 -2.2 24 -4.4 85 85 NW 8 13 30.03 1017 10 16.0934 0 0
7:53 am 07:53 Partly Cloudy 32 0 27 -2.8 82 82 W 9 15 30.03 1017 10 16.0934 0 0
8:53 am 08:53 Cloudy 35 1.7 29 -1.7 78 78 WNW 6 9 30.05 1018 10 16.0934 0 0
9:53 am 09:53 Sunny 40 4.4 30 -1.1 68 68 WNW 12 19 30.05 1018 10 16.0934 0 0
10:53 am 10:53 Mostly Cloudy 49 9.4 31 -0.6 50 50 W 16 26 30.04 1017 10 16.0934 0 0
11:53 am 11:53 Sunny 52 11.1 29 -1.7 41 41 WNW 13 20 30.01 1016 10 16.0934 0 0
12:53 pm 12:53 Partly Cloudy 54 12.2 28 -2.2 37 37 NW 14 22 29.99 1016 10 16.0934 0 0
1:53 pm 13:53 Mostly Sunny 54 12.2 26 -3.3 34 34 W 14 22 29.97 1015 10 16.0934 0 0
2:53 pm 14:53 Sunny 52 11.1 25 -3.9 35 35 WNW 14 22 29.98 1015 10 16.0934 0 0
3:53 pm 15:53 Sunny 51 10.6 22 -5.6 32 32 W 21 33 29.99 1016 10 16.0934 0 0
4:53 pm 16:53 Sunny 45 7.2 22 -5.6 40 40 W 14 22 30.01 1016 10 16.0934 0 0
5:53 pm 17:53 Mostly Clear 38 3.3 22 -5.6 52 52 NW 9 15 30.04 1017 10 16.0934 0 0
6:53 pm 18:53 Mostly Clear 37 2.8 23 -5 57 57 W 7 11 30.05 1018 10 16.0934 0 0
7:53 pm 19:53 Clear 34 1.1 23 -5 64 64 WNW 6 9 30.06 1018 10 16.0934 0 0
8:53 pm 20:53 Clear 32 0 24 -4.4 73 73 W 8 13 30.08 1019 10 16.0934 0 0
9:53 pm 21:53 Mostly Cloudy 34 1.1 25 -3.9 70 70 WNW 7 11 30.06 1018 10 16.0934 0 0
10:53 pm 22:53 Cloudy 35 1.7 26 -3.3 70 70 N 7 11 30.04 1017 10 16.0934 0 0
11:53 pm 23:53 Cloudy 34 1.1 26 -3.3 73 73 SSW 6 9 30.02 1017 10 16.0934 0 0

Powered by AerisWeather